This is the latest recevied weather packets stored in our database for station/object KU9TRY. If no packets are shown the sender has not sent any weather packets the latest 10 day(s).
| Time | Temp. | Humidity | Pressure | Rain* | Wind** | Luminosity | Snow |
|---|---|---|---|---|---|---|---|
| 1777746717 | 17.22° C | 34% | 1016.5 hPa | 0 mm | - | 161 W/m² | - |
| 1777746412 | 17.22° C | 35% | 1016.3 hPa | 0 mm | - | 139 W/m² | - |
| 1777745806 | 17.22° C | 36% | 1016.3 hPa | 0 mm | - | 173 W/m² | - |
| 1777742171 | 17.78° C | 36% | 1017.1 hPa | 0 mm | - | 192 W/m² | - |
| 1777741868 | 18.33° C | 35% | 1017 hPa | 0 mm | - | 1066 W/m² | - |
| 1777741565 | 17.78° C | 36% | 1017.1 hPa | 0 mm | - | 999 W/m² | - |
| 1777740352 | 17.22° C | 32% | 1017.4 hPa | 0 mm | - | 979 W/m² | - |
| 1777740049 | 17.22° C | 35% | 1017.4 hPa | 0 mm | - | 970 W/m² | - |
| 1777739745 | 17.22° C | 32% | 1017.2 hPa | 0 mm | - | 969 W/m² | - |
| 1777739442 | 17.22° C | 32% | 1017.4 hPa | 0 mm | - | 958 W/m² | - |
| 1777739139 | 17.22° C | 35% | 1017.5 hPa | 0 mm | - | 963 W/m² | - |
| 1777738836 | 16.67° C | 38% | 1017.7 hPa | 0 mm | - | 954 W/m² | - |
| 1777738532 | 16.67° C | 36% | 1017.7 hPa | 0 mm | - | 957 W/m² | - |
| 1777738230 | 16.67° C | 38% | 1017.6 hPa | 0 mm | - | 944 W/m² | - |
| 1777737928 | 16.11° C | 37% | 1017.7 hPa | 0 mm | - | 938 W/m² | - |
| 1777737626 | 16.11° C | 36% | 1017.6 hPa | 0 mm | - | 937 W/m² | - |
| 1777737324 | 16.67° C | 35% | 1017.7 hPa | 0 mm | - | 938 W/m² | - |
| 1777737021 | 16.67° C | 37% | 1017.6 hPa | 0 mm | - | 965 W/m² | - |
| 1777736072 | 16.11° C | 36% | 1017.6 hPa | 0 mm | - | 629 W/m² | - |
| 1777735769 | 16.11° C | 40% | 1017.8 hPa | 0 mm | - | 487 W/m² | - |
| 1777735466 | 15.56° C | 41% | 1017.8 hPa | 0 mm | - | 850 W/m² | - |
| 1777735164 | 16.11° C | 41% | 1017.7 hPa | 0 mm | - | 583 W/m² | - |
| 1777734860 | 16.11° C | 42% | 1017.7 hPa | 0 mm | - | 891 W/m² | - |
| 1777734558 | 15.56° C | 41% | 1017.7 hPa | 0 mm | - | 806 W/m² | - |
| 1777734254 | 16.11° C | 39% | 1017.8 hPa | 0 mm | - | 842 W/m² | - |
* Rain latest hour (hover to see other rain measurements)
** Current wind speed in m/s (hover to see current wind gust speed)